FW5469 Weather Reports


Display with metric or nautical units.
time (UTC)temp
F
wind
direction
speed
MPH
gust
MPH
rain 1hr
in
rain 24hr
in
rain mn
in
humidity
%
barometer
mb
20260905170127 73 345 0.0 4.0 0.00 0.13 0.12 92 1013.6
20260905164606 73 0 0.0 4.0 0.00 0.16 0.12 93 1013.6
20260905163103 73 0 0.0 0.0 0.01 0.16 0.12 93 1013.8
20260905161604 73 0 0.0 0.0 0.12 0.16 0.12 94 1013.8
20260905154610 72 0 0.0 0.0 0.12 0.16 0.12 93 1013.9
20260905153104 73 0 0.0 0.0 0.11 0.15 0.11 92 1013.8
20260905151617 74 0 0.0 0.0 0.00 0.04 0.00 88 1013.5
20260905144603 73 0 0.0 0.0 0.00 0.12 0.00 90 1013.3
20260905143106 73 0 0.0 0.0 0.00 0.12 0.00 92 1013.3
20260905141605 73 0 0.0 0.0 0.00 0.12 0.00 93 1013.2
20260905134608 72 85 0.0 1.0 0.00 0.18 0.00 96 1013.2
20260905133101 71 0 0.0 0.0 0.00 0.18 0.00 96 1013.2
20260905131608 71 0 0.0 1.0 0.00 0.18 0.00 96 1013.5
20260905124602 70 0 0.0 0.0 0.00 0.18 0.00 96 1013.1
20260905123105 69 0 0.0 0.0 0.00 0.18 0.00 96 1013.3
20260905121601 69 0 0.0 0.0 0.00 0.18 0.00 96 1013.3
20260905120106 69 0 0.0 0.0 0.00 0.18 0.00 96 1013.0
20260905114604 68 0 0.0 0.0 0.00 0.18 0.00 96 1013.0
20260905113101 68 0 0.0 0.0 0.00 0.18 0.00 96 1013.0
20260905111604 68 0 0.0 0.0 0.00 0.18 0.00 96 1013.0
20260905110113 68 0 0.0 0.0 0.00 0.18 0.00 96 1013.2
20260905104604 68 0 0.0 0.0 0.00 0.18 0.00 96 1013.3
20260905103102 68 0 0.0 0.0 0.00 0.18 0.00 96 1013.8
20260905101611 68 0 0.0 0.0 0.00 0.18 0.00 96 1013.8
20260905094602 67 0 0.0 0.0 0.00 0.18 0.00 96 1013.6
20260905093126 67 0 0.0 0.0 0.00 0.18 0.00 96 1013.0
20260905091608 67 0 0.0 0.0 0.00 0.18 0.00 96 1012.6
20260905084605 67 0 0.0 0.0 0.00 0.18 0.00 96 1012.6
20260905083111 67 0 0.0 0.0 0.00 0.18 0.00 96 1012.4
20260905081604 67 0 0.0 0.0 0.00 0.18 0.00 96 1011.9
20260905080108 67 0 0.0 0.0 0.00 0.18 0.00 96 1012.1
20260905074604 67 0 0.0 0.0 0.00 0.18 0.00 95 1012.3
20260905073103 67 0 0.0 0.0 0.00 0.18 0.00 96 1012.3
20260905071601 67 0 0.0 0.0 0.00 0.18 0.00 95 1012.6
20260905070116 68 0 0.0 0.0 0.00 0.18 0.00 95 1012.2
20260905064602 68 0 0.0 0.0 0.00 0.18 0.00 95 1012.5
20260905063102 68 0 0.0 0.0 0.00 0.18 0.00 95 1012.4
20260905061610 68 0 0.0 0.0 0.00 0.18 0.00 95 1013.0
20260905060101 69 0 0.0 0.0 0.00 0.18 0.00 95 1013.3
20260905054609 69 0 0.0 0.0 0.00 0.19 0.00 95 1013.4
20260905053101 69 0 0.0 0.0 0.00 0.19 0.00 95 1013.6
20260905051601 69 0 0.0 0.0 0.00 0.19 0.00 95 1013.7
20260905044622 69 0 0.0 0.0 0.00 0.19 0.00 95 1013.8
20260905043100 69 0 0.0 0.0 0.00 0.19 0.00 95 1013.8
20260905041607 69 0 0.0 0.0 0.00 0.19 0.00 95 1013.8
20260905040106 69 0 0.0 0.0 0.00 0.19 0.00 95 1013.8
20260905034615 69 0 0.0 0.0 0.00 0.22 0.19 94 1013.9
20260905033105 69 0 0.0 0.0 0.00 0.22 0.19 95 1013.8
20260905031608 69 0 0.0 0.0 0.00 0.22 0.19 94 1013.8
20260905030106 69 0 0.0 0.0 0.00 0.22 0.19 94 1013.7
20260905024605 70 0 0.0 0.0 0.00 0.22 0.19 94 1013.7
20260905023104 70 0 0.0 0.0 0.00 0.22 0.19 94 1013.9
20260905021603 70 0 0.0 0.0 0.00 0.22 0.19 94 1013.9
20260905020105 71 0 0.0 0.0 0.00 0.22 0.19 94 1013.8
20260905014607 71 0 0.0 0.0 0.00 0.22 0.19 94 1013.8
20260905013103 71 0 0.0 0.0 0.00 0.22 0.19 93 1013.8
20260905011602 71 0 0.0 0.0 0.00 0.22 0.19 93 1014.0
20260905010107 71 0 0.0 0.0 0.00 0.22 0.19 93 1013.8
20260905004637 72 0 0.0 0.0 0.00 0.23 0.19 92 1013.7
20260905003102 72 0 0.0 0.0 0.00 0.23 0.19 92 1013.6
20260905001605 73 0 0.0 0.0 0.00 0.23 0.19 91 1013.9
20260905000109 74 0 0.0 1.0 0.00 0.23 0.19 90 1013.7
20260904234607 75 0 0.0 0.0 0.00 0.30 0.19 89 1013.8
20260904233100 75 0 0.0 0.0 0.00 0.30 0.19 88 1013.8
20260904231604 75 0 0.0 1.0 0.00 0.30 0.19 88 1014.0
20260904230129 76 0 0.0 1.0 0.00 0.30 0.19 87 1013.5
20260904224603 76 0 0.0 2.0 0.00 1.65 0.19 86 1013.8
20260904223107 77 283 0.0 2.0 0.00 1.65 0.19 84 1013.7
20260904221610 76 0 0.0 0.0 0.00 1.65 0.19 84 1013.4
20260904220110 76 0 0.0 0.0 0.00 1.65 0.19 85 1013.4
20260904214606 77 0 0.0 0.0 0.00 1.77 0.19 86 1013.0
20260904213105 77 0 0.0 0.0 0.00 1.77 0.19 87 1013.0
20260904211602 76 0 0.0 0.0 0.00 1.77 0.19 88 1012.6
20260904210109 75 0 0.0 0.0 0.00 1.77 0.19 90 1012.5
20260904204608 75 0 0.0 0.0 0.00 1.77 0.19 89 1012.1
20260904203109 75 0 0.0 1.0 0.00 1.77 0.19 91 1012.1
20260904201607 75 219 0.0 6.0 0.00 1.77 0.19 92 1012.4
20260904200109 74 147 1.0 3.0 0.00 1.77 0.19 94 1012.8
20260904194610 74 164 1.0 3.0 0.00 1.77 0.19 95 1013.5
20260904193105 74 210 0.0 3.0 0.00 1.77 0.19 96 1013.6
20260904191603 73 233 0.0 3.0 0.00 1.77 0.19 96 1013.7
20260904190111 72 237 0.0 3.0 0.00 1.77 0.19 96 1014.2
20260904184610 72 202 0.0 3.0 0.01 1.77 0.19 96 1014.3
20260904183115 72 0 1.0 5.0 0.01 1.77 0.19 96 1014.0
20260904181607 72 184 0.0 1.0 0.01 1.77 0.19 96 1014.5
20260904180113 72 141 0.0 2.0 0.01 1.77 0.19 96 1014.9
20260904174608 72 309 1.0 5.0 0.00 1.76 0.18 96 1016.3
20260904173107 72 316 1.0 4.0 0.00 1.76 0.18 97 1016.5
20260904171602 72 0 0.0 4.0 0.02 1.76 0.18 97 1016.1